TimeCDT,TemperatureF,Dew PointF,Humidity,Sea Level PressureIn,VisibilityMPH,Wind Direction,Wind SpeedMPH,Gust SpeedMPH,PrecipitationIn,Events,Conditions,WindDirDegrees,DateUTC
12:15 AM,64.4,51.8,64,29.72,10.0,SSE,3.5,-,N/A,,Clear,150,2013-03-17 05:15:00
12:35 AM,64.4,51.8,64,29.72,10.0,SE,3.5,-,N/A,,Clear,140,2013-03-17 05:35:00
12:55 AM,62.6,51.8,68,29.72,10.0,South,3.5,-,N/A,,Clear,170,2013-03-17 05:55:00
1:15 AM,60.8,51.8,72,29.72,10.0,SSE,3.5,-,N/A,,Clear,160,2013-03-17 06:15:00
1:35 AM,60.8,51.8,72,29.72,10.0,South,3.5,-,N/A,,Clear,170,2013-03-17 06:35:00
1:55 AM,60.8,51.8,72,29.72,10.0,South,4.6,-,N/A,,Clear,180,2013-03-17 06:55:00
2:15 AM,60.8,51.8,72,29.72,10.0,South,4.6,-,N/A,,Clear,180,2013-03-17 07:15:00
2:35 AM,60.8,51.8,72,29.73,10.0,North,4.6,-,N/A,,Clear,350,2013-03-17 07:35:00
2:55 AM,62.6,51.8,68,29.74,10.0,Calm,Calm,-,N/A,,Clear,0,2013-03-17 07:55:00
3:15 AM,55.4,44.6,67,29.74,10.0,North,6.9,-,N/A,,Mostly Cloudy,10,2013-03-17 08:15:00
3:35 AM,55.4,44.6,67,29.74,10.0,NNE,5.8,-,N/A,,Overcast,30,2013-03-17 08:35:00
3:55 AM,55.4,44.6,67,29.74,10.0,North,4.6,-,N/A,,Overcast,10,2013-03-17 08:55:00
4:15 AM,55.4,44.6,67,29.75,10.0,NNE,5.8,-,N/A,,Overcast,30,2013-03-17 09:15:00
4:35 AM,53.6,42.8,67,29.75,10.0,NNE,5.8,-,N/A,,Overcast,20,2013-03-17 09:35:00
5:15 AM,53.6,41.0,62,29.75,10.0,NNE,9.2,-,N/A,,Overcast,30,2013-03-17 10:15:00
5:35 AM,51.8,41.0,67,29.76,10.0,NNE,4.6,-,N/A,,Overcast,30,2013-03-17 10:35:00
5:55 AM,51.8,41.0,67,29.76,10.0,NE,9.2,-,N/A,,Overcast,40,2013-03-17 10:55:00
6:15 AM,51.8,41.0,67,29.76,10.0,NE,9.2,-,N/A,,Overcast,40,2013-03-17 11:15:00
6:35 AM,50.0,39.2,66,29.77,10.0,NNE,5.8,-,N/A,,Overcast,30,2013-03-17 11:35:00
6:55 AM,50.0,39.2,66,29.77,10.0,NE,10.4,-,N/A,,Overcast,40,2013-03-17 11:55:00
7:15 AM,50.0,37.4,62,29.78,10.0,NNE,10.4,-,N/A,,Overcast,30,2013-03-17 12:15:00
7:35 AM,48.2,37.4,66,29.78,10.0,NE,9.2,17.3,N/A,,Overcast,40,2013-03-17 12:35:00
7:55 AM,48.2,37.4,66,29.80,10.0,NNE,9.2,-,N/A,,Overcast,20,2013-03-17 12:55:00
8:15 AM,46.4,37.4,71,29.80,10.0,NNE,11.5,16.1,N/A,,Overcast,20,2013-03-17 13:15:00
8:35 AM,46.4,37.4,71,29.80,10.0,NNE,13.8,18.4,N/A,,Overcast,20,2013-03-17 13:35:00
8:55 AM,46.4,37.4,71,29.81,10.0,NE,12.7,18.4,N/A,,Overcast,40,2013-03-17 13:55:00
9:15 AM,46.4,37.4,71,29.81,10.0,NNE,9.2,16.1,N/A,,Overcast,20,2013-03-17 14:15:00
9:35 AM,46.4,37.4,71,29.82,10.0,NNE,10.4,16.1,N/A,,Overcast,20,2013-03-17 14:35:00
9:55 AM,46.4,37.4,71,29.82,10.0,NNE,8.1,-,N/A,,Overcast,30,2013-03-17 14:55:00
10:15 AM,46.4,37.4,71,29.81,10.0,NNE,8.1,-,N/A,,Overcast,30,2013-03-17 15:15:00
10:35 AM,46.4,37.4,71,29.81,10.0,NE,5.8,-,N/A,,Overcast,40,2013-03-17 15:35:00
10:55 AM,46.4,37.4,71,29.81,10.0,NNE,4.6,-,N/A,,Overcast,20,2013-03-17 15:55:00
11:15 AM,48.2,37.4,66,29.80,10.0,NNE,3.5,-,N/A,,Overcast,20,2013-03-17 16:15:00
11:35 AM,48.2,37.4,66,29.80,10.0,North,4.6,-,N/A,,Overcast,10,2013-03-17 16:35:00
11:55 AM,50.0,39.2,66,29.80,7.0,North,3.5,-,N/A,,Overcast,360,2013-03-17 16:55:00
12:15 PM,50.0,41.0,71,29.81,7.0,NNW,4.6,-,N/A,,Overcast,330,2013-03-17 17:15:00
12:35 PM,51.8,41.0,67,29.81,7.0,North,5.8,-,N/A,,Overcast,350,2013-03-17 17:35:00
12:55 PM,51.8,41.0,67,29.80,7.0,North,4.6,-,N/A,,Overcast,360,2013-03-17 17:55:00
1:15 PM,55.4,41.0,58,29.79,7.0,NNW,8.1,-,N/A,,Mostly Cloudy,330,2013-03-17 18:15:00
1:35 PM,53.6,41.0,62,29.79,7.0,NNW,9.2,-,N/A,,Overcast,340,2013-03-17 18:35:00
1:55 PM,53.6,41.0,62,29.78,7.0,NNW,5.8,-,N/A,,Overcast,340,2013-03-17 18:55:00
2:15 PM,53.6,41.0,62,29.77,10.0,NNW,5.8,-,N/A,,Overcast,340,2013-03-17 19:15:00
2:35 PM,53.6,41.0,62,29.77,10.0,North,5.8,-,N/A,,Overcast,350,2013-03-17 19:35:00
2:55 PM,53.6,41.0,62,29.75,10.0,North,4.6,-,N/A,,Overcast,350,2013-03-17 19:55:00
3:15 PM,53.6,41.0,62,29.74,10.0,North,6.9,-,N/A,,Overcast,10,2013-03-17 20:15:00
3:35 PM,53.6,41.0,62,29.73,10.0,NNW,3.5,-,N/A,,Overcast,340,2013-03-17 20:35:00
3:55 PM,53.6,41.0,62,29.73,10.0,NW,4.6,-,N/A,,Overcast,310,2013-03-17 20:55:00
4:15 PM,53.6,41.0,62,29.74,10.0,NNW,3.5,-,N/A,,Overcast,340,2013-03-17 21:15:00
4:35 PM,53.6,41.0,62,29.73,10.0,North,4.6,-,N/A,,Overcast,360,2013-03-17 21:35:00
4:55 PM,53.6,41.0,62,29.72,10.0,NE,3.5,-,N/A,,Mostly Cloudy,40,2013-03-17 21:55:00
5:15 PM,53.6,41.0,62,29.72,10.0,Calm,Calm,-,N/A,,Clear,0,2013-03-17 22:15:00
5:35 PM,55.4,41.0,58,29.72,10.0,Calm,Calm,-,N/A,,Clear,0,2013-03-17 22:35:00
5:55 PM,55.4,41.0,58,29.71,10.0,Calm,Calm,-,N/A,,Clear,0,2013-03-17 22:55:00
6:15 PM,55.4,41.0,58,29.70,10.0,Calm,Calm,-,N/A,,Clear,0,2013-03-17 23:15:00
6:35 PM,55.4,41.0,58,29.71,10.0,Calm,Calm,-,N/A,,Clear,0,2013-03-17 23:35:00
6:55 PM,55.4,41.0,58,29.71,10.0,Calm,Calm,-,N/A,,Clear,0,2013-03-17 23:55:00
7:15 PM,55.4,41.0,58,29.71,10.0,Calm,Calm,-,N/A,,Clear,0,2013-03-18 00:15:00
7:35 PM,53.6,41.0,62,29.71,10.0,Calm,Calm,-,N/A,,Clear,0,2013-03-18 00:35:00
7:55 PM,51.8,41.0,67,29.71,10.0,Calm,Calm,-,N/A,,Clear,0,2013-03-18 00:55:00
8:15 PM,51.8,41.0,67,29.71,10.0,Calm,Calm,-,N/A,,Clear,0,2013-03-18 01:15:00
8:35 PM,48.2,41.0,76,29.71,10.0,Calm,Calm,-,N/A,,Clear,0,2013-03-18 01:35:00
8:55 PM,46.4,41.0,81,29.73,10.0,Calm,Calm,-,N/A,,Clear,0,2013-03-18 01:55:00
9:15 PM,46.4,41.0,81,29.73,10.0,Calm,Calm,-,N/A,,Clear,0,2013-03-18 02:15:00
9:35 PM,48.2,41.0,76,29.74,10.0,Calm,Calm,-,N/A,,Clear,0,2013-03-18 02:35:00
9:55 PM,48.2,41.0,76,29.73,10.0,Calm,Calm,-,N/A,,Clear,0,2013-03-18 02:55:00
10:15 PM,44.6,41.0,87,29.74,10.0,Calm,Calm,-,N/A,,Clear,0,2013-03-18 03:15:00
10:35 PM,44.6,41.0,87,29.76,10.0,NW,3.5,-,N/A,,Clear,310,2013-03-18 03:35:00
10:55 PM,44.6,41.0,87,29.71,10.0,East,4.6,-,N/A,,Clear,100,2013-03-18 03:55:00
11:15 PM,44.6,41.0,87,29.68,10.0,Calm,Calm,-,N/A,,Clear,0,2013-03-18 04:15:00
11:35 PM,46.4,41.0,81,29.67,10.0,Calm,Calm,-,N/A,,Clear,0,2013-03-18 04:35:00
11:55 PM,46.4,41.0,81,29.67,10.0,Calm,Calm,-,N/A,,Clear,0,2013-03-18 04:55:00